Погода в Вовчике

Украина / Полтавская область     50°04′24″N   33°10′56″E
темп.,
°C
ветер,
м/с
пор.,
м/с
влажн.,
%
обл.,
%
осадки,
мм/ч
давл.,
гПа
погр.,
м
18 мая, вт
вт1800:00+15ю2294100 0.1 100427
03:00+14ю2295100 0.1 100320
06:00+14ю2396100 0.0 100491
09:00+17ю3582100 0.0 1004411
12:00+19ююв4572100 3.5 1003639
15:00+20ю676815 6.3 10021213
18:00+18ю698179 2.4 1002798
21:00+14ююв51191100 2.9 1002377
19 мая, ср
ср1900:00+13ююв5109611 0.0 1002276
03:00+11юв3897100 0.0 1002184
06:00+11ююв3896100 0.0 1003231
09:00+14юв458585 0.0 1003452
12:00+18ююв456627 0.9 10031281
15:00+19ююв346259 3.1 10031391
18:00+18ю336896 1.1 1003815
21:00+13ююз338430 1.4 100423
20 мая, чт
чт2000:00+11ююз33915 0.0 100440
03:00+10зюз479779 0.1 1004167
06:00+12з5894100 0.0 1005555
09:00+12зюз5789100 0.1 1007555
12:00+13зюз5887100 0.2 1008689
15:00+15з798063 0.4 1009949
18:00+14зсз587796 0.2 10111023
21:00+10ссз3688100 0.2 1013115
21 мая, пт
пт2100:00+8с2285100 0.0 101430
03:00+9юв2277100 0.0 101534
06:00+10вюв228097 0.0 101547
09:00+12св3578100 0.0 1015271
12:00+15св5666100 0.0 1015658
15:00+14ссв3680100 0.0 1015192
18:00+14ссв4880100 0.0 1015401
21:00+13ссв71279100 0.0 1015403
22 мая, сб
сб2200:00+13ссв71369100 0.0 1015414
03:00+12ссв61277100 0.1 1014360
06:00+12ссв41086100 0.0 1014359
09:00+15ссв688596 0.0 1013565
12:00+18ссв5676100 0.0 1014885
15:00+19ссв5675100 0.0 1013900
18:00+19ссв4576100 0.0 1014925
21:00+16с588686 0.0 1013268